Erie, CO

7:19 PM MDT on October 18, 2017 (GMT -0600)
Erie Municipal Airport

Weather History for KEIK - March, 2013

Change the Weather History Date:

Thursday, March 7, 2013

  Actual Average (KBJC) Record (KBJC)
Temperature  
Mean Temperature 45 °F -  
Max Temperature 65 °F 48 °F 67 °F (1986)
Min Temperature 25 °F 27 °F 10 °F (1998)
Degree Days  
Heating Degree Days 20    
Moisture  
Dew Point 26 °F    
Average Humidity 63    
Maximum Humidity 96    
Minimum Humidity 14    
Precipitation  
Precipitation 0.00 in - - ()
Sea Level Pressure  
Sea Level Pressure 29.91 in    
Wind  
Wind Speed 4 mph (East)    
Max Wind Speed 15 mph    
Max Gust Speed 24 mph    
Visibility 9 miles    
Events      
Averages and records for this station are not official NWS values.
T = Trace of Precipitation, MM = Missing Value Source: NWS Daily Summary

Daily Weather History Graph

Daily Weather History Graph

Search for Another Location

Airport or City:

Trip Planner

Search our weather history database for the weather conditions in past years. The results will help you decide how hot, cold, wet, or windy it might be!

Date:

Astronomy

Mar. 07, 2013 Rise Set
Actual Time 6:23 AM MST 5:58 PM MST
Civil Twilight 5:56 AM MST 6:25 PM MST
Nautical Twilight 5:25 AM MST 6:57 PM MST
Astronomical Twilight 4:54 AM MST 7:28 PM MST
Moon 3:25 AM MST (3/7) 1:49 PM MST (3/7)
Length of Visible Light 12h 29m
Length of Day
11h 35m
Waning Crescent, 19% of the Moon is Illuminated
Mar 7
Waning Crescent
Mar 11
New
Mar 19
First Quarter
Mar 27
Full
Apr 2
Last Quarter

Hourly Weather History & Observations

Time (MST) Temp. Windchill Dew Point Humidity Pressure Visibility Wind Dir Wind Speed Gust Speed Precip Events Conditions
12:10 AM 28.9 °F 23.9 °F 27.0 °F 92% 29.85 in 10.0 mi South 4.6 mph - N/A   Clear
12:30 AM 29.3 °F 25.6 °F 27.0 °F 91% 29.85 in 10.0 mi South 3.5 mph - N/A   Clear
12:50 AM 29.7 °F - 26.8 °F 89% 29.85 in 10.0 mi Calm Calm - N/A   Clear
1:10 AM 30.7 °F 27.3 °F 27.0 °F 86% 29.86 in 10.0 mi SSW 3.5 mph - N/A   Clear
1:29 AM 30.0 °F - 26.6 °F 87% 29.86 in 10.0 mi Calm Calm - N/A   Clear
1:50 AM 29.5 °F - 26.8 °F 90% 29.86 in 10.0 mi Calm Calm - N/A   Clear
2:10 AM 29.8 °F 24.9 °F 27.3 °F 90% 29.85 in 10.0 mi SSE 4.6 mph - N/A   Clear
2:30 AM 29.8 °F - 27.1 °F 90% 29.85 in 10.0 mi Calm Calm - N/A   Clear
2:49 AM 27.9 °F 24.0 °F 26.1 °F 93% 29.85 in 7.0 mi SSE 3.5 mph - N/A   Clear
3:10 AM 29.1 °F - 27.1 °F 92% 29.85 in 10.0 mi Calm Calm - N/A   Clear
3:30 AM 28.4 °F 22.2 °F 26.2 °F 92% 29.85 in 7.0 mi West 5.8 mph - N/A   Clear
3:50 AM 28.2 °F 23.1 °F 26.2 °F 92% 29.85 in 7.0 mi SSE 4.6 mph - N/A   Clear
4:09 AM 27.7 °F - 25.5 °F 92% 29.87 in 7.0 mi Calm Calm - N/A   Clear
4:29 AM 26.4 °F - 25.0 °F 94% 29.87 in 7.0 mi Calm Calm - N/A   Clear
4:49 AM 25.7 °F - 24.1 °F 94% 29.88 in 7.0 mi Calm Calm - N/A   Clear
5:10 AM 25.7 °F - 24.1 °F 94% 29.88 in 7.0 mi Calm Calm - N/A   Clear
5:30 AM 25.0 °F 20.7 °F 23.7 °F 95% 29.88 in 7.0 mi South 3.5 mph - N/A   Clear
5:51 AM 25.3 °F - 23.5 °F 93% 29.89 in 7.0 mi Calm Calm - N/A   Clear
6:10 AM 25.9 °F 19.2 °F 24.4 °F 94% 29.90 in 10.0 mi SE 5.8 mph - N/A   Clear
6:32 AM 25.7 °F 21.5 °F 24.4 °F 95% 29.91 in 7.0 mi ESE 3.5 mph - N/A   Clear
6:51 AM 26.4 °F - 25.3 °F 96% 29.91 in 5.0 mi Calm Calm - N/A   Clear
7:11 AM 27.1 °F - 25.9 °F 95% 29.94 in 5.0 mi Calm Calm - N/A   Clear
7:31 AM 28.0 °F 24.2 °F 27.1 °F 96% 29.94 in 5.0 mi South 3.5 mph - N/A   Clear
7:51 AM 30.9 °F - 28.9 °F 92% 29.95 in 7.0 mi Calm Calm - N/A   Clear
8:10 AM 32.7 °F - 29.7 °F 88% 29.96 in 10.0 mi Calm Calm - N/A   Clear
8:31 AM 36.0 °F - 32.0 °F 86% 29.97 in 10.0 mi Calm Calm - N/A   Clear
8:49 AM 36.9 °F - 31.5 °F 81% 29.97 in 10.0 mi Calm Calm - N/A   Clear
9:02 AM 37.8 °F - 31.5 °F 78% 29.96 in 10.0 mi Calm Calm - N/A   Clear
10:09 AM 46.2 °F - 29.1 °F 51% 29.96 in 10.0 mi Calm Calm - N/A   Unknown
10:27 AM 48.6 °F - 29.5 °F 48% 29.96 in 10.0 mi Calm Calm - N/A   Clear
10:48 AM 51.3 °F - 27.9 °F 40% 29.96 in 10.0 mi East 4.6 mph - N/A   Clear
11:04 AM 51.8 °F - 27.1 °F 39% 29.96 in 10.0 mi ENE 3.5 mph - N/A   Clear
11:28 AM 55.2 °F - 31.1 °F 40% 29.96 in 10.0 mi East 5.8 mph - N/A   Clear
11:49 AM 57.2 °F - 28.2 °F 33% 29.94 in 10.0 mi East 6.9 mph - N/A   Clear
12:09 PM 58.8 °F - 26.8 °F 29% 29.94 in 10.0 mi East 9.2 mph - N/A   Clear
12:29 PM 61.3 °F - 21.4 °F 22% 29.93 in 10.0 mi ESE 11.5 mph - N/A   Clear
12:47 PM 61.9 °F - 22.8 °F 22% 29.92 in 10.0 mi SE 10.4 mph 18.4 mph N/A   Clear
1:08 PM 62.6 °F - 21.7 °F 21% 29.90 in 10.0 mi SSE 11.5 mph 16.1 mph N/A   Clear
1:27 PM 63.3 °F - 21.6 °F 20% 29.89 in 10.0 mi SE 6.9 mph - N/A   Clear
1:51 PM 64.8 °F - 16.5 °F 16% 29.88 in 10.0 mi East 12.7 mph 16.1 mph N/A   Clear
2:11 PM 65.3 °F - 18.3 °F 16% 29.88 in 10.0 mi East 10.4 mph 20.7 mph N/A   Clear
2:30 PM 64.8 °F - 17.4 °F 16% 29.87 in 10.0 mi East 11.5 mph 19.6 mph N/A   Clear
2:50 PM 65.7 °F - 18.9 °F 17% 29.88 in 10.0 mi East 15.0 mph 24.2 mph N/A   Clear
3:10 PM 64.4 °F - 18.9 °F 17% 29.88 in 10.0 mi East 13.8 mph 23.0 mph N/A   Clear
3:29 PM 64.8 °F - 18.7 °F 17% 29.88 in 10.0 mi East 9.2 mph 19.6 mph N/A   Clear
3:47 PM 64.0 °F - 14.0 °F 14% 29.88 in 10.0 mi East 8.1 mph - N/A   Clear
4:07 PM 63.7 °F - 19.4 °F 18% 29.88 in 10.0 mi East 11.5 mph - N/A   Clear
4:30 PM 63.1 °F - 20.8 °F 20% 29.88 in 10.0 mi East 6.9 mph - N/A   Clear
4:49 PM 62.1 °F - 22.3 °F 22% 29.87 in 10.0 mi ENE 9.2 mph 16.1 mph N/A   Clear
6:48 PM 48.7 °F - 27.9 °F 44% 29.90 in 10.0 mi North 4.6 mph - N/A   Clear
7:08 PM 48.6 °F - 27.3 °F 44% 29.90 in 10.0 mi NNE 6.9 mph - N/A   Clear
7:28 PM 47.1 °F - 27.3 °F 46% 29.90 in 10.0 mi North 8.1 mph - N/A   Clear
7:49 PM 45.3 °F 42.3 °F 28.0 °F 51% 29.91 in 10.0 mi North 5.8 mph - N/A   Clear
8:09 PM 43.0 °F 41.3 °F 28.9 °F 58% 29.91 in 10.0 mi NW 3.5 mph - N/A   Clear
8:29 PM 44.1 °F 40.1 °F 29.3 °F 56% 29.91 in 10.0 mi NW 6.9 mph - N/A   Clear
8:49 PM 41.2 °F 36.0 °F 29.8 °F 64% 29.92 in 10.0 mi NNW 8.1 mph - N/A   Clear
9:09 PM 41.0 °F - 29.5 °F 64% 29.92 in 10.0 mi Calm Calm - N/A   Clear
9:30 PM 39.0 °F - 30.2 °F 71% 29.94 in 10.0 mi Calm Calm - N/A   Clear
9:50 PM 38.8 °F 34.6 °F 29.7 °F 70% 29.94 in 10.0 mi WNW 5.8 mph - N/A   Clear
10:10 PM 41.2 °F 36.0 °F 30.0 °F 65% 29.94 in 10.0 mi NW 8.1 mph - N/A   Clear
10:28 PM 39.4 °F 37.2 °F 29.5 °F 68% 29.97 in 10.0 mi ESE 3.5 mph - N/A   Clear
11:11 PM 36.7 °F - 29.3 °F 75% 29.96 in 10.0 mi Calm Calm - N/A   Clear
11:30 PM 36.1 °F 33.5 °F 29.3 °F 76% 29.95 in 10.0 mi NNW 3.5 mph - N/A   Clear
11:51 PM 34.5 °F 30.4 °F 28.4 °F 78% 29.96 in 10.0 mi North 4.6 mph - N/A   Clear